• En España
  • Lista de países
  • Para 7 días
  • Temperatura del agua
  • Mapa Satelital
  • El tiempo en el mapa
  • Informadores
  • user-avatar
    Iniciar sesión

    Tiempo cada hora Kitzbuel

    Hoy, 22 Octubre, Domingo

    Tiempo Temperatura Precipitaciones Viento Presión Humedad
    00:00 +9°C° 0 mm 1 mps 677 mmHg 79%
    01:00 +9°C° 0 mm 1 mps 677 mmHg 79%
    02:00 +9°C° 0,7 mm 1 mps 677 mmHg 83%
    03:00 +7°C° 0,7 mm 2 mps 677 mmHg 87%
    04:00 +7°C° 0,7 mm 2 mps 677 mmHg 90%
    05:00 +7°C° 1,4 mm 2 mps 677 mmHg 92%
    06:00 +7°C° 1,4 mm 2 mps 677 mmHg 94%
    07:00 +7°C° 0 mm 2 mps 676 mmHg 95%
    08:00 +7°C° 0,6 mm 2 mps 676 mmHg 94%
    09:00 +7°C° 0,6 mm 2 mps 676 mmHg 92%
    10:00 +7°C° 0,6 mm 2 mps 676 mmHg 90%
    11:00 +7°C° 0,8 mm 2 mps 676 mmHg 89%
    12:00 +7°C° 0,8 mm 2 mps 676 mmHg 88%
    13:00 +6°C° 0,8 mm 2 mps 675 mmHg 87%
    14:00 +6°C° 0,9 mm 2 mps 675 mmHg 88%
    15:00 +5°C° 0,9 mm 2 mps 675 mmHg 90%
    16:00 +5°C° 0,9 mm 2 mps 675 mmHg 92%
    17:00 +4°C° 0,7 mm 2 mps 675 mmHg 92%
    18:00 +4°C° 0,7 mm 2 mps 675 mmHg 93%
    19:00 +3°C° 0,7 mm 2 mps 675 mmHg 94%
    20:00 +3°C° 0,9 mm 2 mps 675 mmHg 95%
    21:00 +3°C° 0,9 mm 2 mps 675 mmHg 95%
    22:00 +3°C° 0,9 mm 2 mps 675 mmHg 95%
    23:00 +3°C° 0,9 mm 2 mps 675 mmHg 95%

    Mañana, 23 Octubre, Lunes

    Tiempo Temperatura Precipitaciones Viento Presión Humedad
    00:00 +3°C° 0,9 mm 2 mps 675 mmHg 95%
    01:00 +2°C° 0,9 mm 3 mps 675 mmHg 95%
    02:00 +1°C° 0,8 mm 3 mps 675 mmHg 96%
    03:00 +1°C° 0,8 mm 3 mps 675 mmHg 96%
    04:00 +1°C° 0,8 mm 3 mps 675 mmHg 96%
    05:00 +1°C° 0,6 mm 3 mps 675 mmHg 96%
    06:00 +1°C° 0,6 mm 3 mps 675 mmHg 96%
    07:00 +2°C° 0,6 mm 2 mps 676 mmHg 96%
    08:00 +2°C° 0,6 mm 3 mps 676 mmHg 95%
    09:00 +2°C° 0,6 mm 3 mps 676 mmHg 94%
    10:00 +2°C° 0,6 mm 3 mps 676 mmHg 93%
    11:00 +3°C° 0,7 mm 3 mps 676 mmHg 94%
    12:00 +3°C° 0,7 mm 3 mps 676 mmHg 94%
    13:00 +3°C° 0,7 mm 3 mps 676 mmHg 94%
    14:00 +3°C° 1,1 mm 3 mps 676 mmHg 95%
    15:00 +3°C° 1,1 mm 3 mps 676 mmHg 95%
    16:00 +3°C° 1,1 mm 3 mps 676 mmHg 95%
    17:00 +3°C° 1,3 mm 2 mps 677 mmHg 96%
    18:00 +3°C° 1,3 mm 2 mps 677 mmHg 96%
    19:00 +3°C° 1,3 mm 2 mps 678 mmHg 96%
    20:00 +3°C° 1,1 mm 2 mps 678 mmHg 97%
    21:00 +3°C° 1,1 mm 2 mps 678 mmHg 97%
    22:00 +3°C° 1,1 mm 2 mps 679 mmHg 97%
    23:00 +3°C° 0,7 mm 2 mps 679 mmHg 97%

    Pasado mañana, 24 Octubre, Martes

    Tiempo Temperatura Precipitaciones Viento Presión Humedad
    00:00 +3°C° 0,7 mm 2 mps 679 mmHg 97%
    01:00 +3°C° 0,7 mm 2 mps 680 mmHg 97%
    02:00 +3°C° 0,8 mm 2 mps 680 mmHg 97%
    03:00 +3°C° 0,8 mm 2 mps 680 mmHg 97%
    04:00 +3°C° 0,8 mm 2 mps 680 mmHg 97%
    05:00 +3°C° 0,5 mm 2 mps 680 mmHg 97%
    06:00 +3°C° 0,5 mm 2 mps 681 mmHg 97%
    07:00 +3°C° 0,5 mm 2 mps 681 mmHg 97%
    08:00 +4°C° 0,1 mm 2 mps 681 mmHg 96%
    09:00 +5°C° 0,1 mm 2 mps 681 mmHg 95%
    10:00 +5°C° 0,1 mm 2 mps 681 mmHg 94%
    11:00 +6°C° 0,1 mm 2 mps 681 mmHg 93%
    12:00 +7°C° 0,1 mm 2 mps 681 mmHg 92%
    13:00 +7°C° 0,1 mm 2 mps 681 mmHg 91%
    14:00 +7°C° 0 mm 2 mps 681 mmHg 92%
    15:00 +7°C° 0 mm 2 mps 681 mmHg 93%
    16:00 +6°C° 0 mm 2 mps 681 mmHg 93%
    17:00 +6°C° 0 mm 2 mps 682 mmHg 93%
    18:00 +5°C° 0 mm 2 mps 682 mmHg 93%
    19:00 +4°C° 0 mm 2 mps 682 mmHg 94%
    20:00 +4°C° 0 mm 2 mps 682 mmHg 93%
    21:00 +4°C° 0 mm 2 mps 683 mmHg 93%
    22:00 +4°C° 0 mm 2 mps 683 mmHg 92%
    23:00 +4°C° 0 mm 2 mps 683 mmHg 91%

    25 Octubre, Miércoles

    Tiempo Temperatura Precipitaciones Viento Presión Humedad
    00:00 +4°C° 0 mm 2 mps 683 mmHg 90%
    01:00 +5°C° 0 mm 2 mps 682 mmHg 89%
    02:00 +5°C° 0 mm 2 mps 682 mmHg 88%
    03:00 +5°C° 0 mm 2 mps 682 mmHg 88%
    04:00 +5°C° 0 mm 2 mps 682 mmHg 88%
    05:00 +5°C° 0 mm 2 mps 682 mmHg 88%
    06:00 +5°C° 0 mm 2 mps 682 mmHg 88%
    07:00 +5°C° 0 mm 2 mps 682 mmHg 88%
    08:00 +8°C° 0 mm 1 mps 682 mmHg 88%
    09:00 +9°C° 0 mm 1 mps 682 mmHg 87%
    10:00 +11°C° 0 mm 1 mps 683 mmHg 87%
    11:00 +12°C° 0 mm 1 mps 683 mmHg 86%
    12:00 +13°C° 0 mm 1 mps 683 mmHg 85%
    13:00 +14°C° 0 mm 1 mps 683 mmHg 83%
    14:00 +13°C° 0 mm 1 mps 683 mmHg 85%
    15:00 +12°C° 0 mm 1 mps 682 mmHg 88%
    16:00 +11°C° 0 mm 1 mps 682 mmHg 90%
    17:00 +10°C° 0 mm 1 mps 682 mmHg 90%
    18:00 +9°C° 0 mm 1 mps 682 mmHg 90%
    19:00 +7°C° 0 mm 2 mps 683 mmHg 89%
    20:00 +7°C° 0 mm 2 mps 683 mmHg 88%
    21:00 +7°C° 0 mm 2 mps 683 mmHg 86%
    22:00 +6°C° 0 mm 2 mps 683 mmHg 84%
    23:00 +6°C° 0 mm 2 mps 683 mmHg 83%

    26 Octubre, Jueves

    Tiempo Temperatura Precipitaciones Viento Presión Humedad
    00:00 +6°C° 0 mm 2 mps 683 mmHg 82%
    01:00 +6°C° 0 mm 2 mps 683 mmHg 81%
    02:00 +6°C° 0 mm 2 mps 683 mmHg 81%
    03:00 +6°C° 0 mm 2 mps 683 mmHg 80%
    04:00 +6°C° 0 mm 2 mps 683 mmHg 80%
    05:00 +6°C° 0 mm 2 mps 683 mmHg 80%
    06:00 +6°C° 0 mm 2 mps 683 mmHg 80%
    07:00 +6°C° 0 mm 2 mps 683 mmHg 80%
    08:00 +9°C° 0 mm 1 mps 683 mmHg 80%
    09:00 +11°C° 0 mm 1 mps 684 mmHg 80%
    10:00 +13°C° 0 mm 1 mps 684 mmHg 81%
    11:00 +14°C° 0 mm 1 mps 684 mmHg 78%
    12:00 +15°C° 0 mm 1 mps 684 mmHg 76%
    13:00 +15°C° 0 mm 0 mps 683 mmHg 73%
    14:00 +15°C° 0 mm 1 mps 683 mmHg 76%
    15:00 +14°C° 0 mm 1 mps 683 mmHg 79%
    16:00 +14°C° 0 mm 1 mps 683 mmHg 82%
    17:00 +12°C° 0 mm 1 mps 682 mmHg 82%
    18:00 +11°C° 0 mm 1 mps 682 mmHg 83%
    19:00 +8°C° 0 mm 2 mps 682 mmHg 83%
    20:00 +8°C° 0 mm 2 mps 682 mmHg 81%
    21:00 +8°C° 0 mm 2 mps 682 mmHg 80%
    22:00 +7°C° 0 mm 2 mps 682 mmHg 78%
    23:00 +7°C° 0 mm 2 mps 682 mmHg 77%

    27 Octubre, Viernes

    Tiempo Temperatura Precipitaciones Viento Presión Humedad
    00:00 +7°C° 0 mm 2 mps 682 mmHg 76%
    01:00 +7°C° 0 mm 2 mps 681 mmHg 74%
    02:00 +7°C° 0 mm 2 mps 681 mmHg 74%
    03:00 +7°C° 0 mm 2 mps 681 mmHg 74%
    04:00 +7°C° 0 mm 2 mps 681 mmHg 74%
    05:00 +7°C° 0 mm 2 mps 680 mmHg 74%
    06:00 +7°C° 0 mm 2 mps 680 mmHg 74%
    07:00 +7°C° 0 mm 2 mps 680 mmHg 74%
    08:00 +9°C° 0 mm 2 mps 680 mmHg 75%
    09:00 +12°C° 0 mm 2 mps 680 mmHg 75%
    10:00 +14°C° 0 mm 1 mps 680 mmHg 75%
    11:00 +14°C° 0 mm 2 mps 679 mmHg 74%
    12:00 +15°C° 0 mm 2 mps 679 mmHg 72%
    13:00 +16°C° 0 mm 3 mps 678 mmHg 70%
    14:00 +15°C° 0 mm 2 mps 678 mmHg 74%
    15:00 +14°C° 0 mm 2 mps 677 mmHg 77%
    16:00 +13°C° 0 mm 2 mps 676 mmHg 81%
    17:00 +12°C° 0,4 mm 2 mps 676 mmHg 84%
    18:00 +10°C° 0,4 mm 2 mps 676 mmHg 88%
    19:00 +9°C° 0,4 mm 2 mps 675 mmHg 91%
    20:00 +8°C° 2,7 mm 2 mps 676 mmHg 93%
    21:00 +8°C° 2,7 mm 2 mps 676 mmHg 95%
    22:00 +8°C° 2,7 mm 2 mps 676 mmHg 96%
    23:00 +7°C° 1,5 mm 2 mps 677 mmHg 96%
    Mostrar más